owner,sensor,date,latitude,longitude,vertical_datum,wind_speed,wind_to_direction,wind_speed_of_gust,qcFlag 
TCOON,ioos:station:TCOON:006:1,2009-01-01T00:00:00Z,27.8217,-97.2040,0.0,4.9,49.0,7.1,'11111222,11111222,11111222' 
TCOON,ioos:station:TCOON:006:1,2009-01-01T02:00:00Z,27.8217,-97.2040,0.0,6.0,55.0,7.1,'11111222,11111222,11111222' 
TCOON,ioos:station:TCOON:006:1,2009-01-01T03:00:00Z,27.8217,-97.2040,0.0,4.8,53.0,6.7,'11111222,11111222,11111222' 
TCOON,ioos:station:TCOON:006:1,2009-01-01T04:00:00Z,27.8217,-97.2040,0.0,4.4,54.0,5.8,'11111222,11111222,11111222' 
TCOON,ioos:station:TCOON:006:1,2009-01-01T05:00:00Z,27.8217,-97.2040,0.0,4.9,49.0,6.9,'11111222,11111222,11111222' 
TCOON,ioos:station:TCOON:006:1,2009-01-01T06:00:00Z,27.8217,-97.2040,0.0,4.2,52.0,7.2,'11111222,11111222,11111222' 
TCOON,ioos:station:TCOON:006:1,2009-01-01T07:00:00Z,27.8217,-97.2040,0.0,3.3,34.0,4.7,'11111222,11111222,11111222' 
TCOON,ioos:station:TCOON:006:1,2009-01-01T08:00:00Z,27.8217,-97.2040,0.0,2.9,29.0,4.6,'11111222,11111222,11111222' 
TCOON,ioos:station:TCOON:006:1,2009-01-01T09:00:00Z,27.8217,-97.2040,0.0,4.6,29.0,6.2,'11111222,11111222,11111222' 
TCOON,ioos:station:TCOON:006:1,2009-01-01T10:00:00Z,27.8217,-97.2040,0.0,4.4,30.0,5.7,'11111222,11111222,11111222' 
TCOON,ioos:station:TCOON:006:1,2009-01-01T11:00:00Z,27.8217,-97.2040,0.0,2.5,26.0,4.5,'11111222,11111222,11111222' 
TCOON,ioos:station:TCOON:006:1,2009-01-01T12:00:00Z,27.8217,-97.2040,0.0,2.6,28.0,4.1,'11111222,11111222,11111222' 
TCOON,ioos:station:TCOON:006:1,2009-01-01T13:00:00Z,27.8217,-97.2040,0.0,2.2,22.0,3.8,'11111222,11111222,11111222' 
TCOON,ioos:station:TCOON:006:1,2009-01-01T14:00:00Z,27.8217,-97.2040,0.0,3.0,29.0,4.8,'11111222,11111222,11111222' 
TCOON,ioos:station:TCOON:006:1,2009-01-01T15:00:00Z,27.8217,-97.2040,0.0,2.8,38.0,4.5,'11111222,11111222,11111222' 
TCOON,ioos:station:TCOON:006:1,2009-01-01T16:00:00Z,27.8217,-97.2040,0.0,3.1,51.0,4.4,'11111222,11111222,11111222' 
TCOON,ioos:station:TCOON:006:1,2009-01-01T17:00:00Z,27.8217,-97.2040,0.0,0.6,68.0,1.4,'11111222,11111222,11111222' 
TCOON,ioos:station:TCOON:006:1,2009-01-01T18:00:00Z,27.8217,-97.2040,0.0,2.1,76.0,2.9,'11111222,11111222,11111222' 
TCOON,ioos:station:TCOON:006:1,2009-01-01T19:00:00Z,27.8217,-97.2040,0.0,2.8,74.0,3.5,'11111222,11111222,11111222' 
TCOON,ioos:station:TCOON:006:1,2009-01-01T20:00:00Z,27.8217,-97.2040,0.0,2.1,90.0,2.5,'11111222,11111222,11111222' 
TCOON,ioos:station:TCOON:006:1,2009-01-01T21:00:00Z,27.8217,-97.2040,0.0,2.0,96.0,2.8,'11111222,11111222,11111222' 
TCOON,ioos:station:TCOON:006:1,2009-01-01T22:00:00Z,27.8217,-97.2040,0.0,1.5,97.0,2.5,'11111222,11111222,11111222' 
TCOON,ioos:station:TCOON:006:1,2009-01-01T23:00:00Z,27.8217,-97.2040,0.0,1.6,91.0,2.2,'11111222,11111222,11111222' 
TCOON,ioos:station:TCOON:006:1,2009-01-02T00:00:00Z,27.8217,-97.2040,0.0,1.9,142.0,2.5,'11111222,11111222,11111222' 
TCOON,ioos:station:TCOON:006:1,2009-01-02T01:00:00Z,27.8217,-97.2040,0.0,3.6,150.0,4.9,'11111222,11111222,11111222' 
TCOON,ioos:station:TCOON:006:1,2009-01-02T02:00:00Z,27.8217,-97.2040,0.0,2.7,144.0,3.8,'11111222,11111222,11111222' 
TCOON,ioos:station:TCOON:006:1,2009-01-02T04:00:00Z,27.8217,-97.2040,0.0,5.0,163.0,5.9,'11111222,11111222,11111222' 
TCOON,ioos:station:TCOON:006:1,2009-01-02T05:00:00Z,27.8217,-97.2040,0.0,3.9,191.0,4.5,'11111222,11111222,11111222' 
TCOON,ioos:station:TCOON:006:1,2009-01-02T06:00:00Z,27.8217,-97.2040,0.0,2.6,195.0,3.6,'11111222,11111222,11111222' 
TCOON,ioos:station:TCOON:006:1,2009-01-02T07:00:00Z,27.8217,-97.2040,0.0,0.5,196.0,0.9,'11111222,11111222,11111222' 
TCOON,ioos:station:TCOON:006:1,2009-01-02T08:00:00Z,27.8217,-97.2040,0.0,2.2,186.0,3.6,'11111222,11111222,11111222' 
TCOON,ioos:station:TCOON:006:1,2009-01-02T09:00:00Z,27.8217,-97.2040,0.0,1.0,169.0,1.5,'11111222,11111222,11111222' 
TCOON,ioos:station:TCOON:006:1,2009-01-02T10:00:00Z,27.8217,-97.2040,0.0,1.8,164.0,2.5,'11111222,11111222,11111222' 
TCOON,ioos:station:TCOON:006:1,2009-01-02T11:00:00Z,27.8217,-97.2040,0.0,0.7,138.0,1.2,'11111222,11111222,11111222' 
TCOON,ioos:station:TCOON:006:1,2009-01-02T12:00:00Z,27.8217,-97.2040,0.0,0.6,156.0,0.7,'11111222,11111222,11111222' 
TCOON,ioos:station:TCOON:006:1,2009-01-02T13:00:00Z,27.8217,-97.2040,0.0,0.7,115.0,0.8,'11111222,11111222,11111222' 
TCOON,ioos:station:TCOON:006:1,2009-01-02T14:00:00Z,27.8217,-97.2040,0.0,1.4,119.0,1.5,'11111222,11111222,11111222' 
TCOON,ioos:station:TCOON:006:1,2009-01-02T15:00:00Z,27.8217,-97.2040,0.0,1.5,115.0,1.9,'11111222,11111222,11111222' 
TCOON,ioos:station:TCOON:006:1,2009-01-02T16:00:00Z,27.8217,-97.2040,0.0,2.4,155.0,2.6,'11111222,11111222,11111222' 
TCOON,ioos:station:TCOON:006:1,2009-01-02T17:00:00Z,27.8217,-97.2040,0.0,2.9,144.0,3.7,'11111222,11111222,11111222' 
TCOON,ioos:station:TCOON:006:1,2009-01-02T18:00:00Z,27.8217,-97.2040,0.0,2.5,109.0,3.6,'11111222,11111222,11111222' 
TCOON,ioos:station:TCOON:006:1,2009-01-02T19:00:00Z,27.8217,-97.2040,0.0,2.3,118.0,3.3,'11111222,11111222,11111222' 
TCOON,ioos:station:TCOON:006:1,2009-01-02T20:00:00Z,27.8217,-97.2040,0.0,4.1,132.0,5.1,'11111222,11111222,11111222' 
TCOON,ioos:station:TCOON:006:1,2009-01-02T21:00:00Z,27.8217,-97.2040,0.0,5.1,145.0,6.3,'11111222,11111222,11111222' 
TCOON,ioos:station:TCOON:006:1,2009-01-02T22:00:00Z,27.8217,-97.2040,0.0,5.0,153.0,7.2,'11111222,11111222,11111222' 
TCOON,ioos:station:TCOON:006:1,2009-01-02T23:00:00Z,27.8217,-97.2040,0.0,5.9,151.0,7.7,'11111222,11111222,11111222' 
TCOON,ioos:station:TCOON:006:1,2009-01-03T00:00:00Z,27.8217,-97.2040,0.0,6.0,141.0,7.3,'11111222,11111222,11111222' 
TCOON,ioos:station:TCOON:006:1,2009-01-03T01:00:00Z,27.8217,-97.2040,0.0,5.3,155.0,7.6,'11111222,11111222,11111222' 
TCOON,ioos:station:TCOON:006:1,2009-01-03T02:00:00Z,27.8217,-97.2040,0.0,4.4,148.0,5.4,'11111222,11111222,11111222' 
TCOON,ioos:station:TCOON:006:1,2009-01-03T03:00:00Z,27.8217,-97.2040,0.0,1.8,144.0,3.0,'11111222,11111222,11111222' 
TCOON,ioos:station:TCOON:006:1,2009-01-03T04:00:00Z,27.8217,-97.2040,0.0,2.9,152.0,4.1,'11111222,11111222,11111222' 
TCOON,ioos:station:TCOON:006:1,2009-01-03T05:00:00Z,27.8217,-97.2040,0.0,3.0,163.0,3.7,'11111222,11111222,11111222' 
TCOON,ioos:station:TCOON:006:1,2009-01-03T06:00:00Z,27.8217,-97.2040,0.0,3.5,195.0,4.3,'11111222,11111222,11111222' 
TCOON,ioos:station:TCOON:006:1,2009-01-03T07:00:00Z,27.8217,-97.2040,0.0,4.4,205.0,5.9,'11111222,11111222,11111222' 
TCOON,ioos:station:TCOON:006:1,2009-01-03T08:00:00Z,27.8217,-97.2040,0.0,4.7,199.0,5.5,'11111222,11111222,11111222' 
TCOON,ioos:station:TCOON:006:1,2009-01-03T09:00:00Z,27.8217,-97.2040,0.0,4.7,194.0,6.6,'11111222,11111222,11111222' 
TCOON,ioos:station:TCOON:006:1,2009-01-03T10:00:00Z,27.8217,-97.2040,0.0,13.6,154.0,18.7,'11111222,11111222,11111222' 
TCOON,ioos:station:TCOON:006:1,2009-01-03T11:00:00Z,27.8217,-97.2040,0.0,7.9,149.0,10.9,'11111222,11111222,11111222' 
TCOON,ioos:station:TCOON:006:1,2009-01-03T12:00:00Z,27.8217,-97.2040,0.0,5.8,145.0,8.7,'11111222,11111222,11111222' 
TCOON,ioos:station:TCOON:006:1,2009-01-03T13:00:00Z,27.8217,-97.2040,0.0,4.6,178.0,5.6,'11111222,11111222,11111222' 
TCOON,ioos:station:TCOON:006:1,2009-01-03T14:00:00Z,27.8217,-97.2040,0.0,4.5,180.0,5.5,'11111222,11111222,11111222' 
TCOON,ioos:station:TCOON:006:1,2009-01-03T15:00:00Z,27.8217,-97.2040,0.0,5.9,189.0,6.7,'11111222,11111222,11111222' 
TCOON,ioos:station:TCOON:006:1,2009-01-03T16:00:00Z,27.8217,-97.2040,0.0,7.5,188.0,9.4,'11111222,11111222,11111222' 
TCOON,ioos:station:TCOON:006:1,2009-01-03T17:00:00Z,27.8217,-97.2040,0.0,5.7,182.0,7.6,'11111222,11111222,11111222' 
TCOON,ioos:station:TCOON:006:1,2009-01-03T18:00:00Z,27.8217,-97.2040,0.0,5.8,170.0,7.6,'11111222,11111222,11111222' 
TCOON,ioos:station:TCOON:006:1,2009-01-03T19:00:00Z,27.8217,-97.2040,0.0,5.8,170.0,7.5,'11111222,11111222,11111222' 
TCOON,ioos:station:TCOON:006:1,2009-01-03T20:00:00Z,27.8217,-97.2040,0.0,6.2,169.0,6.5,'11111222,11111222,11111222' 
TCOON,ioos:station:TCOON:006:1,2009-01-03T21:00:00Z,27.8217,-97.2040,0.0,5.8,159.0,7.7,'11111222,11111222,11111222' 
TCOON,ioos:station:TCOON:006:1,2009-01-03T22:00:00Z,27.8217,-97.2040,0.0,6.1,158.0,7.7,'11111222,11111222,11111222' 
TCOON,ioos:station:TCOON:006:1,2009-01-03T23:00:00Z,27.8217,-97.2040,0.0,5.6,155.0,7.7,'11111222,11111222,11111222' 
TCOON,ioos:station:TCOON:006:1,2009-01-04T00:00:00Z,27.8217,-97.2040,0.0,5.5,155.0,7.8,'11111222,11111222,11111222' 
TCOON,ioos:station:TCOON:006:1,2009-01-04T01:00:00Z,27.8217,-97.2040,0.0,5.0,163.0,6.6,'11111222,11111222,11111222' 
TCOON,ioos:station:TCOON:006:1,2009-01-04T02:00:00Z,27.8217,-97.2040,0.0,4.4,159.0,6.2,'11111222,11111222,11111222' 
TCOON,ioos:station:TCOON:006:1,2009-01-04T03:00:00Z,27.8217,-97.2040,0.0,4.9,159.0,6.5,'11111222,11111222,11111222' 
TCOON,ioos:station:TCOON:006:1,2009-01-04T04:00:00Z,27.8217,-97.2040,0.0,4.5,155.0,5.4,'11111222,11111222,11111222' 
TCOON,ioos:station:TCOON:006:1,2009-01-04T05:00:00Z,27.8217,-97.2040,0.0,3.6,159.0,5.1,'11111222,11111222,11111222' 
TCOON,ioos:station:TCOON:006:1,2009-01-04T06:00:00Z,27.8217,-97.2040,0.0,3.7,158.0,5.2,'11111222,11111222,11111222' 
TCOON,ioos:station:TCOON:006:1,2009-01-04T07:00:00Z,27.8217,-97.2040,0.0,2.0,175.0,2.9,'11111222,11111222,11111222' 
TCOON,ioos:station:TCOON:006:1,2009-01-04T08:00:00Z,27.8217,-97.2040,0.0,2.4,158.0,3.4,'11111222,11111222,11111222' 
TCOON,ioos:station:TCOON:006:1,2009-01-04T09:00:00Z,27.8217,-97.2040,0.0,1.8,137.0,2.4,'11111222,11111222,11111222' 
TCOON,ioos:station:TCOON:006:1,2009-01-04T10:00:00Z,27.8217,-97.2040,0.0,2.1,143.0,3.1,'11111222,11111222,11111222' 
TCOON,ioos:station:TCOON:006:1,2009-01-04T11:00:00Z,27.8217,-97.2040,0.0,2.5,133.0,3.4,'11111222,11111222,11111222' 
TCOON,ioos:station:TCOON:006:1,2009-01-04T12:00:00Z,27.8217,-97.2040,0.0,2.5,147.0,3.3,'11111222,11111222,11111222' 
TCOON,ioos:station:TCOON:006:1,2009-01-04T13:00:00Z,27.8217,-97.2040,0.0,1.4,143.0,2.2,'11111222,11111222,11111222' 
TCOON,ioos:station:TCOON:006:1,2009-01-04T14:00:00Z,27.8217,-97.2040,0.0,2.0,70.0,3.6,'11111222,11111222,11111222' 
TCOON,ioos:station:TCOON:006:1,2009-01-04T15:00:00Z,27.8217,-97.2040,0.0,2.2,64.0,3.3,'11111222,11111222,11111222' 
TCOON,ioos:station:TCOON:006:1,2009-01-04T16:00:00Z,27.8217,-97.2040,0.0,2.3,74.0,3.1,'11111222,11111222,11111222' 
TCOON,ioos:station:TCOON:006:1,2009-01-04T17:00:00Z,27.8217,-97.2040,0.0,3.2,71.0,4.3,'11111222,11111222,11111222' 
TCOON,ioos:station:TCOON:006:1,2009-01-04T18:00:00Z,27.8217,-97.2040,0.0,3.4,71.0,5.1,'11111222,11111222,11111222' 
TCOON,ioos:station:TCOON:006:1,2009-01-04T19:00:00Z,27.8217,-97.2040,0.0,3.9,75.0,5.0,'11111222,11111222,11111222' 
TCOON,ioos:station:TCOON:006:1,2009-01-04T20:00:00Z,27.8217,-97.2040,0.0,3.6,73.0,5.4,'11111222,11111222,11111222' 
TCOON,ioos:station:TCOON:006:1,2009-01-04T21:00:00Z,27.8217,-97.2040,0.0,3.6,80.0,4.8,'11111222,11111222,11111222' 
TCOON,ioos:station:TCOON:006:1,2009-01-04T22:00:00Z,27.8217,-97.2040,0.0,4.2,79.0,4.9,'11111222,11111222,11111222' 
TCOON,ioos:station:TCOON:006:1,2009-01-04T23:00:00Z,27.8217,-97.2040,0.0,1.7,5.0,4.3,'11111222,11111222,11111222' 
TCOON,ioos:station:TCOON:006:1,2009-01-05T00:00:00Z,27.8217,-97.2040,0.0,1.7,13.0,5.5,'11111222,11111222,11111222' 
TCOON,ioos:station:TCOON:006:1,2009-01-05T01:00:00Z,27.8217,-97.2040,0.0,2.6,6.0,6.2,'11111222,11111222,11111222' 
TCOON,ioos:station:TCOON:006:1,2009-01-05T02:00:00Z,27.8217,-97.2040,0.0,2.0,8.0,7.9,'11111222,11111222,11111222' 
TCOON,ioos:station:TCOON:006:1,2009-01-05T03:00:00Z,27.8217,-97.2040,0.0,2.5,357.0,5.8,'11111222,11111222,11111222' 
TCOON,ioos:station:TCOON:006:1,2009-01-05T04:00:00Z,27.8217,-97.2040,0.0,1.5,3.0,4.9,'11111222,11111222,11111222' 
TCOON,ioos:station:TCOON:006:1,2009-01-05T05:00:00Z,27.8217,-97.2040,0.0,2.0,348.0,3.7,'11111222,11111222,11111222' 
TCOON,ioos:station:TCOON:006:1,2009-01-05T06:00:00Z,27.8217,-97.2040,0.0,1.7,18.0,6.3,'11111222,11111222,11111222' 
TCOON,ioos:station:TCOON:006:1,2009-01-05T07:00:00Z,27.8217,-97.2040,0.0,1.4,1.0,3.9,'11111222,11111222,11111222' 
TCOON,ioos:station:TCOON:006:1,2009-01-05T08:00:00Z,27.8217,-97.2040,0.0,2.9,350.0,5.9,'11111222,11111222,11111222' 
TCOON,ioos:station:TCOON:006:1,2009-01-05T09:00:00Z,27.8217,-97.2040,0.0,2.9,355.0,5.0,'11111222,11111222,11111222' 
TCOON,ioos:station:TCOON:006:1,2009-01-05T10:00:00Z,27.8217,-97.2040,0.0,1.1,334.0,5.1,'11111222,11111222,11111222' 
TCOON,ioos:station:TCOON:006:1,2009-01-05T11:00:00Z,27.8217,-97.2040,0.0,2.8,321.0,4.6,'11111222,11111222,11111222' 
TCOON,ioos:station:TCOON:006:1,2009-01-05T12:00:00Z,27.8217,-97.2040,0.0,3.8,344.0,5.4,'11111222,11111222,11111222' 
TCOON,ioos:station:TCOON:006:1,2009-01-05T13:00:00Z,27.8217,-97.2040,0.0,4.0,346.0,5.8,'11111222,11111222,11111222' 
TCOON,ioos:station:TCOON:006:1,2009-01-05T14:00:00Z,27.8217,-97.2040,0.0,3.0,344.0,4.9,'11111222,11111222,11111222' 
TCOON,ioos:station:TCOON:006:1,2009-01-05T15:00:00Z,27.8217,-97.2040,0.0,3.8,349.0,5.8,'11111222,11111222,11111222' 
TCOON,ioos:station:TCOON:006:1,2009-01-05T16:00:00Z,27.8217,-97.2040,0.0,2.6,335.0,4.8,'11111222,11111222,11111222' 
TCOON,ioos:station:TCOON:006:1,2009-01-05T17:00:00Z,27.8217,-97.2040,0.0,3.2,333.0,5.3,'11111222,11111222,11111222' 
TCOON,ioos:station:TCOON:006:1,2009-01-05T18:00:00Z,27.8217,-97.2040,0.0,4.1,319.0,7.1,'11111222,11111222,11111222' 
TCOON,ioos:station:TCOON:006:1,2009-01-05T19:00:00Z,27.8217,-97.2040,0.0,3.4,340.0,6.9,'11111222,11111222,11111222' 
TCOON,ioos:station:TCOON:006:1,2009-01-05T20:00:00Z,27.8217,-97.2040,0.0,3.3,307.0,4.7,'11111222,11111222,11111222' 
TCOON,ioos:station:TCOON:006:1,2009-01-05T21:00:00Z,27.8217,-97.2040,0.0,2.0,355.0,3.7,'11111222,11111222,11111222' 
TCOON,ioos:station:TCOON:006:1,2009-01-05T22:00:00Z,27.8217,-97.2040,0.0,1.5,9.0,4.9,'11111222,11111222,11111222' 
TCOON,ioos:station:TCOON:006:1,2009-01-05T23:00:00Z,27.8217,-97.2040,0.0,2.8,336.0,4.6,'11111222,11111222,11111222' 
TCOON,ioos:station:TCOON:006:1,2009-01-06T00:00:00Z,27.8217,-97.2040,0.0,2.0,357.0,4.8,'11111222,11111222,11111222' 
TCOON,ioos:station:TCOON:006:1,2009-01-06T01:00:00Z,27.8217,-97.2040,0.0,2.2,346.0,4.1,'11111222,11111222,11111222' 
TCOON,ioos:station:TCOON:006:1,2009-01-06T02:00:00Z,27.8217,-97.2040,0.0,2.6,348.0,4.7,'11111222,11111222,11111222' 
TCOON,ioos:station:TCOON:006:1,2009-01-06T03:00:00Z,27.8217,-97.2040,0.0,1.5,350.0,2.4,'11111222,11111222,11111222' 
TCOON,ioos:station:TCOON:006:1,2009-01-06T04:00:00Z,27.8217,-97.2040,0.0,1.1,347.0,2.9,'11111222,11111222,11111222' 
TCOON,ioos:station:TCOON:006:1,2009-01-06T05:00:00Z,27.8217,-97.2040,0.0,1.6,296.0,1.8,'11111222,11111222,11111222' 
TCOON,ioos:station:TCOON:006:1,2009-01-06T06:00:00Z,27.8217,-97.2040,0.0,1.3,329.0,2.2,'11111222,11111222,11111222' 
TCOON,ioos:station:TCOON:006:1,2009-01-06T07:00:00Z,27.8217,-97.2040,0.0,2.4,297.0,3.1,'11111222,11111222,11111222' 
TCOON,ioos:station:TCOON:006:1,2009-01-06T08:00:00Z,27.8217,-97.2040,0.0,1.9,326.0,2.6,'11111222,11111222,11111222' 
TCOON,ioos:station:TCOON:006:1,2009-01-06T09:00:00Z,27.8217,-97.2040,0.0,2.4,321.0,3.5,'11111222,11111222,11111222' 
TCOON,ioos:station:TCOON:006:1,2009-01-06T10:00:00Z,27.8217,-97.2040,0.0,2.1,326.0,4.1,'11111222,11111222,11111222' 
TCOON,ioos:station:TCOON:006:1,2009-01-06T11:00:00Z,27.8217,-97.2040,0.0,1.2,319.0,2.2,'11111222,11111222,11111222' 
TCOON,ioos:station:TCOON:006:1,2009-01-06T12:00:00Z,27.8217,-97.2040,0.0,1.2,347.0,2.6,'11111222,11111222,11111222' 
TCOON,ioos:station:TCOON:006:1,2009-01-06T13:00:00Z,27.8217,-97.2040,0.0,1.8,317.0,2.6,'11111222,11111222,11111222' 
TCOON,ioos:station:TCOON:006:1,2009-01-06T14:00:00Z,27.8217,-97.2040,0.0,4.3,298.0,6.7,'11111222,11111222,11111222' 
TCOON,ioos:station:TCOON:006:1,2009-01-06T15:00:00Z,27.8217,-97.2040,0.0,4.2,302.0,6.7,'11111222,11111222,11111222' 
TCOON,ioos:station:TCOON:006:1,2009-01-06T16:00:00Z,27.8217,-97.2040,0.0,1.2,13.0,3.0,'11111222,11111222,11111222' 
TCOON,ioos:station:TCOON:006:1,2009-01-06T17:00:00Z,27.8217,-97.2040,0.0,1.7,85.0,3.1,'11111222,11111222,11111222' 
TCOON,ioos:station:TCOON:006:1,2009-01-06T18:00:00Z,27.8217,-97.2040,0.0,5.1,245.0,6.2,'11111222,11111222,11111222' 
TCOON,ioos:station:TCOON:006:1,2009-01-06T19:00:00Z,27.8217,-97.2040,0.0,5.0,277.0,6.6,'11111222,11111222,11111222' 
TCOON,ioos:station:TCOON:006:1,2009-01-06T20:00:00Z,27.8217,-97.2040,0.0,4.2,272.0,5.9,'11111222,11111222,11111222' 
TCOON,ioos:station:TCOON:006:1,2009-01-06T21:00:00Z,27.8217,-97.2040,0.0,3.8,269.0,5.7,'11111222,11111222,11111222' 
TCOON,ioos:station:TCOON:006:1,2009-01-06T22:00:00Z,27.8217,-97.2040,0.0,2.5,268.0,3.7,'11111222,11111222,11111222' 
TCOON,ioos:station:TCOON:006:1,2009-01-06T23:00:00Z,27.8217,-97.2040,0.0,1.3,283.0,2.2,'11111222,11111222,11111222' 
TCOON,ioos:station:TCOON:006:1,2009-01-07T00:00:00Z,27.8217,-97.2040,0.0,0.3,304.0,1.2,'11111222,11111222,11111222' 
TCOON,ioos:station:TCOON:006:1,2009-01-07T01:00:00Z,27.8217,-97.2040,0.0,0.5,130.0,0.5,'11111222,11111222,11111222' 
TCOON,ioos:station:TCOON:006:1,2009-01-07T02:00:00Z,27.8217,-97.2040,0.0,2.3,200.0,2.9,'11111222,11111222,11111222' 
TCOON,ioos:station:TCOON:006:1,2009-01-07T03:00:00Z,27.8217,-97.2040,0.0,2.1,212.0,2.8,'11111222,11111222,11111222' 
TCOON,ioos:station:TCOON:006:1,2009-01-07T04:00:00Z,27.8217,-97.2040,0.0,2.5,255.0,3.1,'11111222,11111222,11111222' 
TCOON,ioos:station:TCOON:006:1,2009-01-07T05:00:00Z,27.8217,-97.2040,0.0,2.2,277.0,4.3,'11111222,11111222,11111222' 
TCOON,ioos:station:TCOON:006:1,2009-01-07T06:00:00Z,27.8217,-97.2040,0.0,2.4,278.0,3.2,'11111222,11111222,11111222' 
TCOON,ioos:station:TCOON:006:1,2009-01-07T07:00:00Z,27.8217,-97.2040,0.0,2.5,302.0,3.5,'11111222,11111222,11111222' 
TCOON,ioos:station:TCOON:006:1,2009-01-07T08:00:00Z,27.8217,-97.2040,0.0,3.0,343.0,3.8,'11111222,11111222,11111222' 
TCOON,ioos:station:TCOON:006:1,2009-01-07T09:00:00Z,27.8217,-97.2040,0.0,1.3,358.0,2.9,'11111222,11111222,11111222' 
TCOON,ioos:station:TCOON:006:1,2009-01-07T10:00:00Z,27.8217,-97.2040,0.0,2.0,23.0,3.1,'11111222,11111222,11111222' 
TCOON,ioos:station:TCOON:006:1,2009-01-07T11:00:00Z,27.8217,-97.2040,0.0,1.9,346.0,2.1,'11111222,11111222,11111222' 
TCOON,ioos:station:TCOON:006:1,2009-01-07T12:00:00Z,27.8217,-97.2040,0.0,1.4,261.0,1.5,'11111222,11111222,11111222' 
TCOON,ioos:station:TCOON:006:1,2009-01-07T13:00:00Z,27.8217,-97.2040,0.0,1.5,263.0,1.7,'11111222,11111222,11111222' 
TCOON,ioos:station:TCOON:006:1,2009-01-07T14:00:00Z,27.8217,-97.2040,0.0,2.4,243.0,2.9,'11111222,11111222,11111222' 
TCOON,ioos:station:TCOON:006:1,2009-01-07T15:00:00Z,27.8217,-97.2040,0.0,3.8,240.0,4.2,'11111222,11111222,11111222' 
TCOON,ioos:station:TCOON:006:1,2009-01-07T16:00:00Z,27.8217,-97.2040,0.0,3.8,251.0,4.4,'11111222,11111222,11111222' 
TCOON,ioos:station:TCOON:006:1,2009-01-07T17:00:00Z,27.8217,-97.2040,0.0,2.4,247.0,3.0,'11111222,11111222,11111222' 
TCOON,ioos:station:TCOON:006:1,2009-01-07T18:00:00Z,27.8217,-97.2040,0.0,4.4,184.0,5.2,'11111222,11111222,11111222' 
TCOON,ioos:station:TCOON:006:1,2009-01-07T19:00:00Z,27.8217,-97.2040,0.0,5.8,171.0,6.6,'11111222,11111222,11111222' 
TCOON,ioos:station:TCOON:006:1,2009-01-07T20:00:00Z,27.8217,-97.2040,0.0,4.6,156.0,5.8,'11111222,11111222,11111222' 
TCOON,ioos:station:TCOON:006:1,2009-01-07T21:00:00Z,27.8217,-97.2040,0.0,4.8,146.0,6.9,'11111222,11111222,11111222' 
TCOON,ioos:station:TCOON:006:1,2009-01-07T22:00:00Z,27.8217,-97.2040,0.0,5.4,156.0,7.0,'11111222,11111222,11111222' 
TCOON,ioos:station:TCOON:006:1,2009-01-07T23:00:00Z,27.8217,-97.2040,0.0,5.0,157.0,6.7,'11111222,11111222,11111222' 
TCOON,ioos:station:TCOON:006:1,2009-01-08T00:00:00Z,27.8217,-97.2040,0.0,5.6,155.0,7.1,'11111222,11111222,11111222' 
TCOON,ioos:station:TCOON:006:1,2009-01-08T01:00:00Z,27.8217,-97.2040,0.0,4.8,154.0,6.4,'11111222,11111222,11111222' 
TCOON,ioos:station:TCOON:006:1,2009-01-08T02:00:00Z,27.8217,-97.2040,0.0,4.6,163.0,5.6,'11111222,11111222,11111222' 
TCOON,ioos:station:TCOON:006:1,2009-01-08T03:00:00Z,27.8217,-97.2040,0.0,5.5,173.0,7.0,'11111222,11111222,11111222' 
TCOON,ioos:station:TCOON:006:1,2009-01-08T04:00:00Z,27.8217,-97.2040,0.0,5.7,174.0,7.1,'11111222,11111222,11111222' 
TCOON,ioos:station:TCOON:006:1,2009-01-08T05:00:00Z,27.8217,-97.2040,0.0,4.1,176.0,5.0,'11111222,11111222,11111222' 
TCOON,ioos:station:TCOON:006:1,2009-01-08T06:00:00Z,27.8217,-97.2040,0.0,4.3,191.0,5.9,'11111222,11111222,11111222' 
TCOON,ioos:station:TCOON:006:1,2009-01-08T07:00:00Z,27.8217,-97.2040,0.0,2.8,195.0,3.2,'11111222,11111222,11111222' 
TCOON,ioos:station:TCOON:006:1,2009-01-08T08:00:00Z,27.8217,-97.2040,0.0,2.2,203.0,3.0,'11111222,11111222,11111222' 
TCOON,ioos:station:TCOON:006:1,2009-01-08T09:00:00Z,27.8217,-97.2040,0.0,1.6,237.0,1.9,'11111222,11111222,11111222' 
TCOON,ioos:station:TCOON:006:1,2009-01-08T10:00:00Z,27.8217,-97.2040,0.0,1.6,263.0,1.8,'11111222,11111222,11111222' 
TCOON,ioos:station:TCOON:006:1,2009-01-08T11:00:00Z,27.8217,-97.2040,0.0,1.8,253.0,2.1,'11111222,11111222,11111222' 
TCOON,ioos:station:TCOON:006:1,2009-01-08T12:00:00Z,27.8217,-97.2040,0.0,1.8,250.0,1.9,'11111222,11111222,11111222' 
TCOON,ioos:station:TCOON:006:1,2009-01-08T13:00:00Z,27.8217,-97.2040,0.0,1.6,352.0,2.5,'11111222,11111222,11111222' 
TCOON,ioos:station:TCOON:006:1,2009-01-08T14:00:00Z,27.8217,-97.2040,0.0,0.0,53.0,1.0,'11111222,11111222,11111222' 
TCOON,ioos:station:TCOON:006:1,2009-01-08T15:00:00Z,27.8217,-97.2040,0.0,1.2,83.0,1.4,'11111222,11111222,11111222' 
TCOON,ioos:station:TCOON:006:1,2009-01-08T16:00:00Z,27.8217,-97.2040,0.0,2.3,142.0,3.2,'11111222,11111222,11111222' 
TCOON,ioos:station:TCOON:006:1,2009-01-08T17:00:00Z,27.8217,-97.2040,0.0,1.3,104.0,2.3,'11111222,11111222,11111222' 
TCOON,ioos:station:TCOON:006:1,2009-01-08T18:00:00Z,27.8217,-97.2040,0.0,2.8,109.0,3.6,'11111222,11111222,11111222' 
TCOON,ioos:station:TCOON:006:1,2009-01-08T19:00:00Z,27.8217,-97.2040,0.0,2.7,122.0,3.7,'11111222,11111222,11111222' 
TCOON,ioos:station:TCOON:006:1,2009-01-08T20:00:00Z,27.8217,-97.2040,0.0,3.3,103.0,4.5,'11111222,11111222,11111222' 
TCOON,ioos:station:TCOON:006:1,2009-01-08T21:00:00Z,27.8217,-97.2040,0.0,3.0,103.0,4.6,'11111222,11111222,11111222' 
TCOON,ioos:station:TCOON:006:1,2009-01-08T22:00:00Z,27.8217,-97.2040,0.0,3.7,91.0,5.2,'11111222,11111222,11111222' 
TCOON,ioos:station:TCOON:006:1,2009-01-08T23:00:00Z,27.8217,-97.2040,0.0,3.4,92.0,4.9,'11111222,11111222,11111222' 
TCOON,ioos:station:TCOON:006:1,2009-01-09T00:00:00Z,27.8217,-97.2040,0.0,2.7,100.0,3.8,'11111222,11111222,11111222' 
TCOON,ioos:station:TCOON:006:1,2009-01-09T01:00:00Z,27.8217,-97.2040,0.0,3.8,135.0,5.6,'11111222,11111222,11111222' 
TCOON,ioos:station:TCOON:006:1,2009-01-09T02:00:00Z,27.8217,-97.2040,0.0,3.8,136.0,6.0,'11111222,11111222,11111222' 
TCOON,ioos:station:TCOON:006:1,2009-01-09T03:00:00Z,27.8217,-97.2040,0.0,5.2,140.0,6.5,'11111222,11111222,11111222' 
TCOON,ioos:station:TCOON:006:1,2009-01-09T04:00:00Z,27.8217,-97.2040,0.0,4.5,143.0,6.6,'11111222,11111222,11111222' 
TCOON,ioos:station:TCOON:006:1,2009-01-09T05:00:00Z,27.8217,-97.2040,0.0,4.8,142.0,6.0,'11111222,11111222,11111222' 
TCOON,ioos:station:TCOON:006:1,2009-01-09T06:00:00Z,27.8217,-97.2040,0.0,4.8,142.0,6.4,'11111222,11111222,11111222' 
TCOON,ioos:station:TCOON:006:1,2009-01-09T07:00:00Z,27.8217,-97.2040,0.0,3.8,146.0,4.6,'11111222,11111222,11111222' 
TCOON,ioos:station:TCOON:006:1,2009-01-09T08:00:00Z,27.8217,-97.2040,0.0,3.7,146.0,5.0,'11111222,11111222,11111222' 
TCOON,ioos:station:TCOON:006:1,2009-01-09T09:00:00Z,27.8217,-97.2040,0.0,4.2,141.0,5.5,'11111222,11111222,11111222' 
TCOON,ioos:station:TCOON:006:1,2009-01-09T10:00:00Z,27.8217,-97.2040,0.0,3.2,151.0,4.7,'11111222,11111222,11111222' 
TCOON,ioos:station:TCOON:006:1,2009-01-09T11:00:00Z,27.8217,-97.2040,0.0,5.0,142.0,7.5,'11111222,11111222,11111222' 
TCOON,ioos:station:TCOON:006:1,2009-01-09T12:00:00Z,27.8217,-97.2040,0.0,4.2,145.0,5.3,'11111222,11111222,11111222' 
TCOON,ioos:station:TCOON:006:1,2009-01-09T13:00:00Z,27.8217,-97.2040,0.0,2.5,157.0,3.9,'11111222,11111222,11111222' 